Temp
-5 -5 -6 -5 -5 -6 -6 -6 -6 -6 -6 -6 -6 -6 -6 -6 -6 -6 -6 -6 -6 -6 -6 -6 -6 -6 -6 -6 -6 -6 -6 -6 -6 -6 -6 -6 -6 -6 -5 -5 -5 -5 -5 -5 -5 -5 -5 -5 -5
-5 -6 -5 -5 -5 -6 -6 -6 -6 -6 -6 -6 -6 -6 -6 -6 -7 -7 -7 -7 -6 -7 -7 -7 -7 -6 -6 -6 -6 -6 -6 -6 -6 -6 -6 -6 -6 -5 -5 -5 -5 -5 -5 -5 -5 -5 -5 -5 -6
-5 -6 -5 -5 -5 -5 -6 -6 -5 -6 -7 -7 -7 -7 -7 -6 -7 -8 -8 -8 -7 -7 -7 -7 -7 -7 -6 -6 -6 -6 -6 -6 -6 -6 -6 -6 -6 -5 -5 -5 -5 -5 -5 -5 -5 -5 -5 -5 -6
-5 -5 -4 -5 -5 -5 -5 -5 -6 -6 -7 -7 -7 -8 -8 -7 -7 -8 -8 -8 -8 -8 -8 -7 -7 -7 -7 -6 -6 -6 -6 -6 -6 -6 -6 -6 -5 -5 -5 -5 -6 -5 -5 -5 -5 -5 -5 -5 -6
-5 -5 -5 -5 -5 -6 -5 -5 -6 -6 -6 -7 -7 -8 -8 -8 -7 -8 -8 -8 -8 -8 -8 -7 -7 -7 -7 -6 -6 -6 -6 -6 -6 -6 -6 -6 -5 -5 -5 -5 -5 -5 -5 -6 -5 -5 -5 -5 -6
-4 -5 -5 -6 -5 -5 -5 -5 -6 -6 -6 -7 -7 -8 -8 -8 -7 -7 -7 -8 -8 -8 -7 -7 -7 -7 -7 -7 -6 -6 -6 -6 -5 -6 -6 -6 -5 -5 -5 -5 -5 -5 -5 -6 -6 -6 -5 -5 -6
-4 -5 -5 -6 -5 -5 -5 -5 -6 -6 -6 -7 -7 -7 -8 -8 -7 -7 -7 -7 -8 -7 -7 -7 -7 -7 -7 -6 -6 -6 -6 -6 -5 -6 -5 -6 -6 -5 -5 -5 -5 -5 -5 -5 -6 -6 -6 -6 -6
-5 -5 -4 -5 -5 -5 -5 -5 -6 -7 -6 -7 -7 -7 -7 -8 -7 -7 -7 -7 -7 -7 -7 -7 -7 -7 -7 -6 -6 -6 -6 -6 -5 -6 -6 -5 -5 -5 -5 -5 -6 -5 -5 -6 -6 -6 -6 -6 -6
-6 -5 -5 -6 -5 -5 -6 -5 -6 -6 -6 -7 -7 -7 -7 -8 -7 -7 -8 -8 -7 -7 -7 -7 -6 -6 -6 -6 -6 -6 -6 -6 -6 -6 -6 -5 -5 -5 -5 -5 -5 -5 -6 -6 -6 -6 -6 -6 -6
-7 -6 -6 -6 -6 -6 -5 -5 -6 -7 -6 -7 -7 -7 -7 -8 -7 -7 -7 -7 -7 -6 -6 -7 -6 -6 -6 -6 -6 -6 -6 -6 -6 -6 -5 -6 -6 -5 -5 -6 -6 -6 -6 -6 -6 -6 -6 -6 -6
-7 -7 -5 -6 -6 -6 -5 -5 -6 -7 -7 -6 -6 -6 -7 -7 -7 -7 -7 -7 -6 -6 -6 -6 -6 -6 -6 -6 -6 -6 -6 -6 -6 -6 -6 -6 -5 -5 -6 -6 -6 -6 -6 -6 -6 -6 -6 -6 -6
-6 -6 -6 -6 -6 -6 -6 -6 -6 -7 -6 -6 -6 -6 -7 -7 -7 -7 -7 -7 -6 -6 -6 -6 -6 -6 -6 -6 -6 -6 -6 -6 -6 -6 -6 -6 -6 -6 -6 -6 -6 -6 -6 -6 -6 -6 -6 -6 -6
-7 -7 -7 -7 -7 -7 -6 -6 -6 -6 -6 -6 -6 -5 -6 -7 -7 -7 -7 -7 -7 -7 -6 -6 -6 -6 -6 -6 -6 -6 -6 -6 -6 -6 -6 -6 -6 -6 -6 -6 -6 -6 -6 -6 -6 -6 -6 -6 -6
-7 -7 -7 -8 -8 -7 -7 -6 -6 -6 -7 -7 -6 -5 -6 -6 -7 -7 -7 -7 -6 -7 -6 -6 -6 -6 -6 -6 -6 -6 -6 -6 -6 -6 -6 -6 -6 -6 -6 -6 -6 -6 -6 -6 -6 -6 -6 -6 -6
-7 -7 -7 -7 -7 -7 -7 -6 -6 -5 -6 -7 -6 -6 -6 -6 -6 -6 -6 -6 -7 -7 -6 -6 -6 -6 -6 -6 -6 -6 -6 -6 -6 -6 -6 -6 -6 -5 -6 -6 -6 -6 -6 -6 -6 -6 -5 -6 -6
-7 -7 -7 -7 -7 -7 -7 -7 -6 -6 -6 -6 -6 -6 -6 -5 -6 -6 -6 -6 -6 -7 -6 -6 -6 -6 -6 -6 -6 -6 -6 -6 -6 -6 -5 -6 -6 -6 -6 -6 -6 -6 -6 -6 -6 -6 -6 -6 -6
-7 -7 -7 -7 -7 -7 -7 -8 -6 -6 -6 -6 -6 -6 -5 -5 -6 -5 -5 -5 -5 -6 -6 -6 -6 -6 -6 -6 -6 -6 -6 -6 -6 -6 -6 -6 -7 -7 -7 -6 -6 -6 -6 -6 -6 -6 -6 -6 -6
-7 -7 -7 -7 -7 -7 -7 -8 -7 -6 -6 -5 -6 -6 -5 -5 -5 -5 -5 -6 -5 -6 -5 -5 -5 -6 -6 -6 -5 -5 -5 -5 -6 -6 -6 -7 -7 -7 -6 -6 -6 -6 -6 -6 -6 -6 -6 -6 -6
-7 -7 -8 -7 -6 -6 -7 -7 -7 -6 -6 -6 -6 -6 -6 -5 -5 -5 -6 -6 -6 -6 -5 -6 -6 -6 -6 -6 -5 -5 -6 -6 -6 -6 -7 -7 -7 -7 -7 -6 -6 -6 -6 -6 -6 -6 -6 -6 -6
-7 -8 -7 -6 -5 -6 -6 -7 -7 -7 -6 -6 -6 -6 -6 -6 -5 -5 -5 -5 -6 -6 -6 -6 -6 -6 -6 -6 -6 -6 -6 -7 -7 -7 -7 -8 -8 -7 -7 -7 -6 -6 -6 -6 -6 -6 -6 -6 -6
-7 -6 -7 -6 -5 -6 -6 -6 -6 -6 -6 -6 -6 -6 -6 -6 -6 -6 -5 -6 -5 -5 -5 -6 -6 -6 -6 -6 -6 -6 -6 -7 -7 -6 -7 -7 -8 -7 -7 -7 -7 -7 -6 -6 -6 -6 -6 -6 -6
-7 -6 -6 -6 -6 -6 -6 -6 -6 -6 -7 -6 -6 -7 -6 -6 -6 -6 -5 -6 -6 -5 -5 -6 -6 -6 -6 -6 -6 -6 -6 -6 -6 -6 -6 -6 -7 -7 -7 -7 -7 -6 -6 -6 -6 -6 -6 -6 -7
-7 -6 -6 -6 -7 -6 -6 -6 -6 -6 -7 -7 -6 -6 -6 -6 -6 -6 -6 -5 -6 -5 -5 -6 -6 -6 -6 -6 -7 -7 -6 -7 -7 -7 -7 -7 -7 -6 -7 -7 -6 -6 -6 -6 -6 -6 -6 -6 -7
-7 -6 -6 -6 -7 -7 -6 -6 -6 -6 -6 -6 -7 -7 -7 -7 -6 -5 -6 -5 -5 -5 -5 -6 -6 -6 -7 -7 -7 -7 -7 -7 -7 -7 -7 -7 -7 -7 -7 -7 -7 -6 -6 -6 -6 -6 -6 -6 -7
-6 -6 -6 -6 -7 -6 -6 -6 -6 -6 -6 -6 -6 -6 -6 -6 -6 -5 -6 -6 -6 -6 -6 -6 -6 -6 -6 -7 -7 -7 -7 -7 -7 -7 -7 -7 -7 -7 -7 -6 -6 -6 -6 -7 -7 -7 -7 -8 -7
-6 -6 -6 -6 -6 -6 -6 -5 -5 -6 -6 -6 -5 -5 -6 -6 -6 -6 -6 -6 -6 -6 -6 -6 -6 -6 -6 -6 -7 -6 -6 -6 -6 -6 -6 -7 -7 -6 -6 -6 -6 -7 -7 -7 -7 -8 -8 -8 -8
-6 -6 -6 -6 -6 -6 -6 -6 -6 -6 -6 -6 -6 -5 -5 -6 -6 -6 -6 -6 -6 -6 -6 -6 -6 -6 -6 -7 -7 -6 -6 -6 -5 -6 -6 -6 -6 -6 -6 -7 -8 -8 -8 -8 -8 -8 -8 -8 -7
-7 -6 -6 -6 -5 -6 -6 -6 -5 -5 -5 -6 -5 -5 -5 -5 -5 -5 -6 -6 -6 -6 -6 -6 -6 -7 -6 -7 -7 -7 -6 -6 -6 -6 -6 -6 -6 -7 -7 -8 -7 -8 -7 -6 -6 -8 -8 -8 -8
-8 -7 -7 -6 -5 -6 -6 -5 -6 -5 -6 -6 -6 -6 -5 -5 -5 -5 -5 -6 -6 -6 -6 -7 -7 -7 -7 -7 -7 -7 -7 -6 -6 -6 -6 -6 -6 -7 -7 -7 -7 -8 -8 -8 -8 -8 -7 -7 -8
-8 -8 -7 -7 -6 -6 -6 -6 -6 -7 -6 -6 -6 -6 -5 -5 -5 -5 -5 -6 -6 -6 -6 -7 -7 -7 -7 -7 -7 -7 -7 -7 -7 -7 -7 -6 -6 -6 -6 -7 -7 -7 -8 -8 -8 -8 -8 -8 -8
Height
5874 5874 5874 5874 5878 5873 5872 5871 5871 5872 5872 5873 5874 5873 5875 5875 5876 5882 5880 5882 5884 5885 5886 5888 5889 5892 5895 5898 5899 5900 5902 5903 5905 5907 5909 5909 5910 5909 5910 5913 5912 5912 5913 5914 5913 5912 5912 5913 5912
5876 5876 5877 5877 5878 5874 5874 5874 5872 5872 5872 5874 5875 5875 5876 5876 5876 5879 5881 5885 5887 5888 5889 5892 5894 5896 5897 5900 5901 5902 5904 5905 5906 5910 5910 5912 5912 5913 5912 5914 5914 5914 5914 5915 5914 5913 5913 5913 5913
5878 5879 5880 5880 5879 5878 5878 5877 5874 5873 5875 5877 5877 5876 5878 5878 5878 5880 5882 5885 5887 5890 5892 5894 5896 5897 5900 5901 5903 5904 5906 5908 5909 5911 5912 5913 5914 5915 5915 5916 5916 5917 5917 5916 5915 5915 5914 5914 5914
5881 5881 5883 5883 5880 5880 5879 5878 5877 5877 5877 5878 5878 5878 5879 5880 5880 5880 5883 5885 5888 5891 5894 5896 5898 5899 5901 5902 5905 5906 5908 5911 5911 5913 5914 5915 5916 5916 5917 5918 5919 5919 5919 5917 5917 5916 5916 5916 5914
5884 5883 5884 5885 5885 5882 5881 5880 5880 5880 5880 5880 5880 5880 5880 5881 5881 5882 5883 5885 5888 5892 5895 5897 5899 5901 5903 5904 5905 5908 5910 5912 5913 5914 5916 5918 5917 5918 5919 5920 5921 5921 5921 5920 5919 5919 5918 5917 5917
5886 5887 5887 5886 5885 5884 5883 5882 5884 5883 5882 5883 5882 5881 5881 5882 5883 5884 5886 5888 5890 5894 5895 5898 5900 5903 5905 5905 5907 5910 5912 5913 5914 5916 5918 5919 5920 5920 5921 5922 5922 5923 5923 5922 5921 5920 5919 5919 5918
5888 5890 5890 5887 5886 5887 5885 5884 5886 5886 5885 5885 5884 5884 5883 5884 5884 5886 5887 5889 5893 5896 5898 5900 5902 5904 5905 5907 5909 5912 5912 5915 5917 5917 5919 5920 5921 5921 5922 5923 5923 5923 5923 5923 5923 5921 5920 5919 5919
5890 5893 5891 5889 5889 5889 5887 5887 5887 5887 5887 5886 5886 5886 5886 5886 5886 5887 5889 5891 5895 5898 5900 5902 5904 5906 5908 5910 5911 5913 5915 5917 5918 5919 5920 5921 5922 5923 5923 5923 5923 5923 5923 5923 5924 5923 5921 5920 5920
5890 5892 5893 5894 5892 5892 5890 5889 5889 5888 5887 5888 5889 5888 5889 5888 5889 5889 5891 5894 5898 5901 5903 5905 5906 5908 5910 5912 5914 5915 5917 5918 5920 5920 5921 5922 5923 5924 5924 5923 5923 5923 5923 5923 5923 5923 5922 5921 5920
5890 5893 5893 5894 5894 5894 5892 5891 5889 5890 5890 5889 5892 5891 5891 5891 5892 5892 5894 5897 5900 5902 5905 5907 5908 5911 5912 5914 5915 5917 5919 5920 5921 5921 5922 5924 5924 5924 5924 5924 5923 5923 5923 5923 5923 5924 5923 5922 5922
5895 5895 5896 5894 5894 5895 5896 5895 5892 5892 5891 5891 5894 5894 5894 5895 5896 5898 5899 5901 5901 5904 5907 5909 5911 5912 5914 5915 5917 5918 5920 5921 5922 5923 5924 5925 5925 5925 5925 5924 5923 5923 5922 5922 5922 5922 5922 5923 5923
5901 5901 5900 5895 5893 5896 5895 5896 5896 5894 5895 5893 5896 5897 5897 5897 5899 5900 5901 5903 5905 5907 5909 5911 5913 5914 5916 5917 5919 5920 5921 5922 5923 5924 5925 5925 5926 5926 5926 5925 5924 5923 5922 5922 5922 5922 5922 5922 5922
5903 5902 5900 5897 5896 5898 5897 5898 5897 5898 5897 5895 5897 5898 5900 5901 5902 5904 5905 5906 5907 5909 5910 5912 5914 5916 5918 5920 5921 5921 5922 5924 5925 5926 5926 5927 5927 5928 5927 5926 5925 5924 5922 5921 5920 5920 5920 5921 5921
5904 5904 5904 5901 5901 5900 5900 5900 5899 5900 5900 5897 5899 5900 5902 5903 5904 5906 5907 5908 5909 5910 5912 5913 5915 5918 5919 5921 5922 5923 5924 5924 5926 5926 5927 5928 5928 5928 5927 5926 5924 5923 5921 5919 5918 5919 5918 5919 5920
5904 5905 5904 5904 5905 5904 5902 5901 5902 5903 5900 5900 5901 5902 5903 5904 5906 5908 5909 5910 5911 5912 5913 5915 5917 5919 5921 5922 5924 5924 5924 5925 5927 5928 5928 5929 5929 5928 5926 5923 5923 5921 5918 5915 5915 5916 5916 5917 5918
5906 5906 5904 5903 5905 5905 5903 5902 5902 5903 5901 5903 5904 5905 5905 5905 5907 5909 5911 5911 5912 5913 5914 5915 5918 5920 5922 5923 5924 5924 5925 5927 5928 5928 5929 5929 5928 5927 5926 5924 5922 5919 5916 5912 5913 5914 5915 5916 5916
5907 5906 5905 5904 5902 5903 5903 5904 5902 5903 5903 5905 5906 5907 5907 5907 5907 5909 5912 5912 5912 5914 5916 5917 5920 5922 5923 5924 5925 5926 5927 5927 5927 5927 5927 5927 5927 5926 5925 5924 5923 5920 5918 5917 5915 5914 5915 5916 5916
5909 5908 5907 5905 5905 5904 5906 5907 5906 5905 5905 5905 5907 5907 5908 5908 5908 5909 5911 5912 5913 5914 5916 5918 5921 5922 5924 5925 5926 5926 5927 5927 5927 5928 5927 5926 5925 5925 5925 5924 5924 5922 5921 5919 5918 5918 5918 5917 5917
5911 5911 5910 5909 5908 5908 5907 5908 5909 5907 5906 5906 5906 5907 5909 5909 5908 5909 5911 5913 5914 5916 5917 5919 5921 5922 5923 5925 5926 5926 5926 5926 5927 5927 5925 5924 5925 5925 5926 5925 5924 5924 5923 5922 5921 5920 5919 5919 5918
5912 5911 5911 5911 5912 5910 5909 5909 5908 5908 5908 5908 5908 5906 5908 5910 5909 5910 5911 5913 5915 5917 5918 5919 5921 5923 5924 5925 5926 5927 5927 5926 5926 5924 5923 5923 5924 5925 5925 5925 5925 5925 5925 5925 5924 5923 5923 5922 5922
5912 5911 5911 5912 5912 5912 5912 5912 5912 5912 5910 5908 5908 5907 5906 5908 5910 5912 5912 5914 5916 5919 5920 5920 5921 5923 5925 5926 5927 5928 5927 5925 5925 5924 5922 5922 5923 5925 5926 5926 5926 5927 5927 5927 5926 5925 5926 5925 5924
5911 5912 5910 5911 5913 5913 5914 5914 5913 5912 5910 5908 5907 5907 5907 5908 5910 5912 5914 5915 5918 5919 5920 5921 5922 5924 5926 5927 5927 5927 5926 5924 5924 5923 5922 5923 5925 5926 5927 5928 5929 5928 5927 5927 5926 5925 5925 5925 5924
5913 5913 5912 5910 5912 5913 5913 5914 5913 5911 5910 5908 5907 5907 5909 5909 5911 5913 5914 5915 5918 5919 5920 5921 5922 5925 5926 5926 5924 5924 5924 5924 5923 5924 5924 5925 5927 5928 5929 5931 5932 5931 5931 5930 5928 5927 5924 5923 5923
5911 5912 5911 5911 5912 5913 5913 5915 5914 5913 5911 5909 5907 5906 5908 5909 5911 5913 5914 5916 5918 5918 5918 5919 5922 5924 5924 5923 5922 5923 5924 5924 5924 5925 5926 5926 5928 5930 5932 5933 5933 5932 5930 5930 5930 5929 5926 5924 5922
5908 5910 5911 5912 5912 5913 5913 5915 5915 5914 5912 5912 5910 5908 5908 5910 5911 5913 5914 5915 5917 5918 5918 5919 5920 5921 5921 5921 5921 5922 5924 5924 5925 5925 5927 5927 5931 5932 5932 5932 5931 5930 5930 5929 5928 5927 5925 5922 5920
5907 5910 5911 5911 5912 5913 5913 5915 5916 5916 5914 5913 5912 5911 5910 5910 5910 5913 5914 5914 5916 5917 5918 5917 5917 5920 5920 5921 5922 5923 5924 5924 5925 5927 5928 5929 5930 5931 5930 5930 5928 5928 5927 5926 5925 5923 5922 5920 5917
5906 5908 5910 5911 5911 5912 5913 5914 5916 5915 5915 5913 5913 5912 5911 5911 5911 5912 5914 5913 5916 5916 5916 5916 5916 5919 5920 5921 5922 5923 5924 5924 5925 5927 5928 5928 5928 5929 5929 5928 5927 5925 5924 5923 5922 5921 5920 5917 5913
5904 5905 5908 5909 5910 5910 5911 5913 5915 5916 5915 5914 5914 5913 5912 5910 5911 5911 5912 5913 5914 5915 5915 5916 5916 5918 5920 5921 5921 5922 5923 5923 5924 5926 5927 5927 5927 5928 5927 5926 5925 5924 5922 5917 5916 5919 5919 5915 5910
5901 5902 5904 5906 5907 5907 5908 5912 5912 5914 5916 5915 5914 5914 5914 5913 5912 5913 5912 5912 5913 5914 5914 5915 5915 5917 5918 5919 5921 5922 5922 5922 5923 5925 5927 5927 5927 5926 5925 5925 5925 5923 5919 5915 5916 5916 5913 5910 5906
5897 5899 5901 5902 5904 5904 5905 5909 5911 5912 5915 5915 5915 5915 5915 5914 5913 5913 5912 5912 5912 5912 5912 5913 5913 5914 5915 5917 5919 5921 5922 5922 5923 5923 5925 5927 5927 5926 5925 5923 5923 5918 5915 5912 5911 5909 5908 5906 5901
Wind_Speed
13 14 13 12 14 18 17 16 16 16 14 12 14 11 9 13 14 13 15 17 15 19 18 18 21 21 19 17 16 17 17 17 17 17 15 14 14 17 17 16 17 16 16 15 14 16 16 16 19
13 12 14 13 13 20 13 10 15 17 15 15 15 16 9 13 15 14 15 12 14 15 18 17 20 19 19 17 16 17 16 17 18 16 15 13 13 16 17 16 17 17 16 15 16 17 16 17 18
10 12 12 12 14 15 13 12 14 16 14 15 15 15 9 9 14 12 14 13 11 13 16 16 16 18 17 17 16 16 15 16 17 16 15 12 15 16 16 16 17 16 13 13 14 16 15 15 16
9 10 12 11 18 15 12 11 14 12 14 16 16 15 13 5 13 13 11 11 13 11 12 15 14 15 15 16 15 15 14 15 16 16 16 17 18 17 16 16 16 14 12 12 13 15 15 15 16
8 12 10 4 5 11 10 11 9 7 12 14 12 14 11 6 5 8 6 7 12 13 13 15 14 14 14 15 15 14 14 14 15 15 15 15 16 14 13 14 15 14 13 10 9 11 12 13 15
6 10 8 11 10 8 9 10 7 6 11 11 9 12 9 5 5 7 7 7 8 12 16 15 14 14 15 15 15 14 14 14 13 13 14 15 14 13 13 14 14 13 11 9 8 9 10 11 13
1 6 9 10 10 8 10 10 7 6 11 13 12 10 11 7 5 9 10 9 9 9 14 14 14 13 14 14 14 14 14 13 11 12 12 13 11 11 10 9 9 10 10 8 7 6 7 8 10
10 8 9 11 8 9 11 9 6 7 12 13 11 10 12 7 12 12 13 12 10 12 12 12 13 13 14 13 13 13 12 11 9 10 10 10 8 7 6 6 7 8 7 6 6 5 5 7 8
10 10 12 13 10 14 13 11 9 9 13 11 9 9 12 12 13 15 15 18 14 13 14 13 13 13 15 14 12 12 11 9 7 7 8 7 6 4 4 6 7 8 7 5 5 4 3 3 5
14 13 13 13 8 7 9 7 13 9 9 11 10 10 12 12 13 16 18 19 19 16 14 14 13 13 15 14 12 11 10 8 5 5 5 4 3 3 4 5 7 6 6 5 4 4 4 3 4
16 14 9 9 4 8 6 9 13 11 7 8 7 9 11 12 12 14 17 19 19 18 16 15 14 14 13 13 11 10 9 7 5 4 2 2 3 4 5 6 7 6 6 5 3 2 2 2 2
19 22 14 17 9 16 12 11 11 14 6 9 5 9 10 11 8 14 16 19 19 18 16 15 14 14 13 12 11 10 9 6 4 2 1 3 4 3 5 6 6 7 6 5 4 3 4 4 3
27 31 31 35 29 17 15 12 12 14 8 8 4 6 8 10 7 8 13 15 16 17 16 15 14 13 11 10 9 9 8 6 4 3 2 4 4 5 5 5 8 10 8 5 10 6 7 6 5
27 31 31 35 35 23 16 11 11 15 12 8 6 5 4 8 10 8 10 13 15 16 15 14 14 13 12 9 8 9 8 7 6 4 4 4 5 6 6 8 9 10 12 7 6 7 8 7 6
22 24 30 30 28 25 21 13 11 15 15 11 6 6 5 6 10 9 9 12 12 12 13 13 13 13 12 9 8 8 7 5 5 4 3 4 4 6 7 9 10 12 13 9 6 9 10 6 4
19 19 22 24 24 22 24 16 13 14 18 13 8 7 7 7 9 10 11 11 11 11 10 11 11 12 10 9 8 6 6 4 3 2 4 4 6 6 6 7 8 11 13 5 2 6 8 3 6
15 14 15 18 21 21 23 20 13 13 15 14 10 7 9 7 6 7 11 11 11 10 10 11 11 10 8 9 10 8 6 4 4 3 4 3 3 3 2 5 6 7 8 9 12 12 9 9 8
9 10 12 13 16 18 18 18 11 9 10 12 12 8 7 9 9 7 6 7 6 8 10 10 9 9 9 9 8 7 5 4 3 3 3 2 2 2 2 3 3 6 6 8 10 11 12 11 9
5 5 7 10 12 14 13 13 10 6 7 6 8 11 5 6 7 6 7 7 8 9 10 10 9 8 10 8 5 4 5 3 3 4 3 3 5 5 3 2 4 4 5 6 7 9 8 9 9
6 2 1 6 11 11 7 9 7 8 4 2 3 8 7 6 6 7 6 7 8 10 11 12 10 9 9 8 6 4 5 4 3 3 2 6 6 7 3 2 3 4 5 5 5 6 6 6 7
9 8 2 2 10 10 7 4 5 5 3 1 3 3 5 4 5 7 9 7 8 9 9 11 10 10 8 6 4 4 2 3 2 4 4 5 6 6 4 1 2 4 5 4 3 4 4 3 2
16 11 5 3 5 9 7 6 5 0 3 4 6 5 3 3 5 6 7 8 10 12 11 11 8 7 8 7 5 4 3 4 2 4 4 5 6 2 2 1 2 4 4 4 4 2 1 2 2
17 19 5 8 6 5 7 6 2 4 6 2 6 13 8 4 6 9 8 8 9 10 11 10 7 5 6 6 5 3 4 4 6 7 5 2 1 3 4 5 5 6 7 7 7 8 7 7 6
21 16 8 6 6 4 4 7 13 12 9 5 3 8 16 11 6 8 6 5 5 7 9 10 7 5 4 4 5 5 4 4 4 3 2 2 4 5 7 8 11 12 11 10 11 12 13 14 12
15 11 9 5 5 3 2 7 4 6 8 12 8 2 4 4 11 7 6 4 4 5 6 8 7 5 4 5 5 5 5 3 3 2 1 2 5 7 9 9 11 12 12 12 13 14 15 16 18
14 14 12 9 13 6 2 3 5 2 5 8 10 5 5 6 7 7 5 4 4 4 4 7 9 9 9 8 6 4 2 2 3 2 1 4 4 8 9 11 13 14 16 15 13 11 16 21 23
12 12 17 17 15 14 11 11 6 7 3 3 6 5 1 6 7 5 4 4 4 3 4 6 10 9 8 8 5 4 3 2 0 1 1 4 4 4 5 6 12 16 15 20 20 13 14 23 30
15 14 12 17 19 19 17 14 10 7 3 4 3 5 3 3 6 5 2 3 2 2 4 6 10 9 8 7 6 3 3 2 1 1 2 4 3 1 3 5 11 13 21 19 12 13 15 19 25
17 17 16 16 19 21 21 13 10 10 1 7 1 2 3 4 3 3 2 3 1 2 4 6 7 8 8 8 7 6 6 6 6 3 2 2 2 2 4 10 11 17 15 9 6 7 11 18 19
24 21 18 15 16 21 23 17 15 15 9 8 1 7 5 6 5 7 5 1 2 2 3 3 5 6 7 7 8 8 10 12 9 6 2 2 2 5 8 10 10 12 9 3 5 8 14 15 18
Wind_Direction
75 79 70 104 100 88 87 77 77 82 83 89 89 92 114 143 139 146 142 147 143 135 115 119 117 116 117 118 115 113 111 112 108 107 101 97 93 88 89 91 90 85 78 75 70 65 68 65 62
75 81 69 65 85 75 74 56 76 77 73 77 81 83 100 137 144 156 151 152 139 142 125 125 126 124 120 118 116 112 111 111 110 108 100 96 94 91 87 83 82 83 81 72 61 59 69 65 59
70 60 56 58 76 81 79 60 67 71 65 68 72 88 98 152 160 165 166 157 143 146 132 132 131 124 120 117 114 112 113 111 110 105 99 95 103 94 86 83 83 82 83 69 58 58 64 61 53
66 51 60 90 99 87 70 68 64 71 64 55 60 71 82 144 176 170 168 165 150 143 140 136 135 124 119 117 119 117 115 118 112 107 97 97 103 95 90 84 83 82 76 65 57 58 55 56 53
81 59 53 47 94 81 64 56 56 54 61 58 71 82 79 109 178 180 182 152 136 146 145 138 138 132 129 128 123 120 118 119 111 105 99 96 91 86 84 83 83 81 80 74 59 53 52 49 49
49 70 49 75 121 70 84 66 46 36 59 64 76 84 69 72 149 159 165 155 138 158 148 142 141 139 138 132 124 119 120 114 108 105 101 96 87 81 76 74 79 85 88 81 59 44 43 46 49
43 123 71 89 82 93 83 74 57 33 65 90 87 83 69 73 128 141 149 139 141 163 151 144 143 139 131 130 125 123 115 115 113 104 104 102 96 88 79 61 58 70 73 80 80 45 31 34 39
68 67 86 101 96 84 79 84 85 73 69 85 94 76 77 82 114 129 136 136 142 154 146 142 139 136 132 131 127 121 120 116 111 111 112 110 97 92 73 40 31 40 54 64 76 83 45 15 19
98 74 74 67 76 84 78 76 93 76 80 90 90 73 82 91 110 121 132 142 147 149 143 142 134 135 133 130 126 122 119 120 119 119 116 115 98 73 43 19 18 22 31 33 43 67 77 15 11
102 83 62 51 87 99 48 115 86 84 94 92 86 74 78 84 108 126 134 144 146 142 136 138 134 136 133 133 134 128 122 121 122 111 124 107 36 35 26 7 3 5 17 27 21 43 39 28 5
76 53 39 40 103 125 67 111 97 113 109 99 93 85 88 91 102 125 137 140 139 141 140 142 143 136 136 134 134 133 130 134 139 99 85 70 348 3 37 22 356 338 341 328 341 28 5 355 344
84 72 62 65 73 164 122 85 97 108 118 113 114 89 98 99 112 133 137 141 141 143 144 144 141 138 141 140 141 141 138 152 126 122 121 86 37 31 27 19 2 342 319 286 275 253 298 306 295
73 79 72 68 70 107 101 90 94 102 114 112 110 79 103 121 129 138 138 141 145 147 146 145 144 144 144 147 146 140 145 146 133 149 128 84 52 20 15 360 357 352 345 326 296 263 275 288 280
83 81 76 71 64 71 82 80 85 107 109 107 125 118 120 141 152 158 151 146 147 147 147 148 147 147 145 147 146 152 149 139 142 146 122 79 43 22 15 11 4 348 347 327 283 283 283 257 276
89 86 87 74 62 63 59 70 86 105 99 101 134 132 161 173 163 167 162 148 146 145 147 147 146 148 147 142 150 158 134 128 145 161 99 67 59 28 23 15 359 349 336 321 274 265 236 238 252
92 82 78 79 65 55 53 66 86 96 93 103 110 155 167 195 179 175 170 154 150 154 157 151 155 158 152 141 145 134 122 141 144 68 29 39 41 32 18 10 3 18 19 88 171 229 166 125 108
106 83 68 58 60 61 50 43 78 91 95 97 103 128 171 173 182 185 174 161 151 147 160 160 163 161 158 148 145 149 154 137 124 106 119 90 48 36 5 12 15 52 50 66 84 103 112 102 98
104 83 60 55 48 65 51 50 52 94 90 95 101 116 146 172 165 177 177 180 164 166 164 153 159 161 158 152 155 147 120 106 110 180 129 122 193 202 252 4 31 55 67 77 88 96 103 101 91
97 99 80 54 45 43 60 61 50 88 93 92 97 103 132 170 164 166 175 190 195 189 178 167 175 163 150 156 171 166 137 156 200 223 170 205 224 229 213 349 37 47 49 64 83 93 97 101 109
159 130 90 30 63 44 80 50 82 78 52 83 98 106 116 170 190 156 163 188 201 192 179 159 165 167 162 183 198 170 168 180 170 159 222 238 235 232 202 345 19 32 40 37 60 78 84 94 102
217 210 221 65 74 64 107 96 120 78 37 21 170 113 111 155 173 174 169 165 180 191 173 156 162 159 165 206 199 197 191 188 229 223 297 234 213 190 206 234 359 27 31 14 23 41 53 54 48
243 286 211 93 78 48 64 92 83 357 210 238 205 197 157 180 160 163 163 161 171 165 155 148 160 180 176 182 200 225 184 177 216 195 161 173 169 186 292 307 349 6 9 344 340 340 337 291 265
257 284 270 118 59 78 77 127 142 140 113 154 217 199 191 174 162 155 155 156 167 167 156 142 143 185 189 196 202 225 197 164 172 175 145 121 358 344 334 334 335 340 345 332 308 295 288 286 292
257 260 156 108 88 90 93 114 91 80 72 79 141 219 219 184 168 159 154 158 162 160 154 137 144 180 203 198 197 178 186 171 177 163 132 68 3 358 15 4 352 347 348 330 321 317 316 313 312
218 210 173 159 187 209 353 163 130 73 54 49 28 83 150 225 196 163 154 159 180 178 168 148 142 159 164 161 189 176 178 180 211 222 154 48 26 23 26 19 9 353 344 336 328 326 328 327 321
225 204 199 213 195 206 31 120 183 188 79 44 33 5 207 192 170 185 135 101 188 185 162 143 130 132 126 132 149 164 156 207 234 207 284 41 35 28 31 16 354 348 334 318 309 313 338 336 323
228 212 213 223 229 229 257 274 214 168 215 58 32 18 284 202 221 219 159 126 165 196 190 154 136 145 149 145 146 135 121 128 61 71 73 79 78 59 10 351 354 326 312 324 285 282 313 328 317
235 239 226 225 231 244 248 264 223 193 279 171 7 347 353 159 225 219 214 148 193 171 183 178 152 160 167 171 168 162 150 181 249 358 66 90 93 67 326 306 337 344 335 342 290 264 320 311 325
228 247 252 245 244 232 241 228 241 232 135 152 135 315 260 166 138 203 166 123 98 130 167 176 166 171 180 179 180 200 225 234 260 273 11 82 77 29 270 287 333 331 353 37 54 358 333 343 332
226 241 248 245 241 234 235 224 232 264 254 197 212 240 253 224 229 256 249 136 60 101 128 174 176 188 205 207 205 209 222 232 246 272 293 148 284 288 298 314 348 342 336 349 19 1 356 341 345